[[{"header":{"parameterUnit":"m.s-1","parameterCategory":1,"la1":30.2991,"la2":30.254,"lo1":-89.0895,"lo2":-89.0444,"dy":0.0017,"dx":0.0017,"nx":28,"ny":28,"refTime":"2024-09-26T03:00:00:Z","depth":0,"parameterNumber":2,"parameterNumberName":"U-component_of_WINDS"},"data":[0,0,0,0,0,0,0,0,0,0,0,0,0,0,0,0,0,0,0,0,0,0,0,0,0,0,0,0,0,0,0,0,0,0,0,0,0,0,0,0,0,0,0,0,0,0,0,0,0,0,0,0,0,0,0,0,0,0,-2.4524,-2.4525,0,-2.4645,-2.4647,-2.4648,-2.4602,-2.4599,-2.4597,-2.4594,-2.4723,-2.4729,-2.4735,0,0,0,0,0,0,0,0,0,0,0,0,0,-2.4255,-2.426,-2.4523,-2.4525,-2.4526,-2.4645,-2.4647,-2.4648,-2.4603,-2.4599,-2.4596,-2.4593,-2.4721,-2.4728,-2.4735,0,0,0,0,0,0,0,0,0,0,0,0,0,-2.4374,-2.4262,-2.4523,-2.4518,-2.4519,-2.4645,-2.4647,-2.4649,-2.4603,-2.4599,-2.4595,-2.4591,-2.4718,-2.4727,-2.4736,-2.4876,0,0,-2.4764,-2.4768,0,0,0,0,0,0,0,0,-2.4367,-2.4384,-2.4517,-2.4518,-2.4519,-2.4604,-2.4599,-2.4725,-2.4604,-2.4571,-2.4594,-2.4589,-2.4687,-2.4698,-2.4731,-2.4882,-2.4888,-2.4765,-2.477,-2.4774,-2.4777,0,0,0,0,0,0,0,-2.4359,-2.4378,-2.4572,-2.4519,-2.4521,-2.4511,-2.4523,-2.4623,-2.4651,-2.4574,-2.4571,-2.4586,-2.4687,-2.4722,-2.4733,-2.4889,-2.4764,-2.4772,-2.4778,-2.4782,-2.5163,-2.5168,0,0,0,0,0,0,-2.435,-2.4372,-2.4568,-2.4575,-2.4431,-2.4519,-2.4532,-2.4581,-2.465,-2.4656,-2.4589,-2.4583,-2.4709,-2.4723,-2.4738,-2.4907,-2.4774,-2.4782,-2.4788,-2.5158,-2.5164,-2.5169,0,0,0,0,0,0,-2.4344,-2.4368,-2.4563,-2.4473,-2.4497,-2.4528,-2.4583,-2.4586,-2.4621,-2.4661,-2.4667,-2.462,-2.4706,-2.4725,-2.4842,-2.4911,-2.4787,-2.4795,-2.5153,-2.516,-2.5167,-2.5247,0,0,0,0,0,0,-2.4337,-2.4366,-2.4419,-2.4474,-2.4502,-2.4665,-2.4587,-2.4591,-2.4636,-2.4629,-2.4691,-2.4698,-2.4704,-2.4829,-2.4851,-2.4921,-2.4802,-2.5147,-2.5156,-2.5164,-2.5238,-2.5256,-2.5271,0,0,0,0,0,-2.4327,-2.4437,-2.4422,-2.4446,-2.4568,-2.4668,-2.4684,-2.4688,-2.4642,-2.4696,-2.4722,-2.4696,-2.4899,-2.4841,-2.4866,-2.494,-2.5143,-2.5154,-2.5164,-2.5231,-2.5253,-2.5271,0,0,0,0,0,0,-2.4391,-2.4444,-2.4428,-2.4559,-2.4609,-2.466,-2.4729,-2.471,-2.4776,-2.4768,-2.477,-2.4785,-2.4906,-2.4934,-2.4868,-2.5079,-2.5014,-2.503,-2.5057,-2.5078,-2.5094,-2.5086,-2.4809,0,0,0,0,0,-2.4419,-2.4495,-2.4538,-2.465,-2.4676,-2.4698,-2.4742,-2.474,-2.4793,-2.4815,-2.4849,-2.4903,-2.4979,-2.5029,-2.5102,-2.5241,-2.5255,-2.5304,-2.5321,-2.5334,-2.5349,-2.5426,-2.5449,-2.5204,-2.5204,-2.5204,0,0,-2.4481,-2.4519,-2.4567,-2.4663,-2.4702,-2.4782,-2.4716,-2.4803,-2.4863,-2.4828,-2.4941,-2.4968,-2.5029,-2.5158,-2.5217,-2.5185,-2.5419,-2.5347,-2.5357,-2.5365,-2.544,-2.5463,-2.5483,-2.5211,-2.521,-2.5209,0,0,-2.4633,-2.4669,-2.4766,-2.4806,-2.4866,-2.488,-2.4903,-2.4957,-2.4974,-2.5086,-2.5062,-2.5133,-2.5264,-2.5308,-2.5348,-2.5516,-2.5496,-2.554,-2.5626,-2.5702,-2.5721,-2.5738,-2.5801,-2.5823,-2.5554,-2.5554,-2.5554,0,-2.4702,-2.4821,-2.4819,-2.4909,-2.4952,-2.4922,-2.5022,-2.5061,-2.5142,-2.5173,-2.5136,-2.53,-2.5338,-2.5478,-2.5519,-2.5551,-2.558,-2.5534,-2.5718,-2.5735,-2.5751,-2.5811,-2.5834,-2.5559,-2.5558,-2.5558,-2.5557,0,-2.4904,-2.4986,-2.5057,-2.5135,-2.5186,-2.528,-2.5294,-2.5347,-2.534,-2.5358,-2.5474,-2.5519,-2.56,-2.5632,-2.5627,-2.5772,-2.5751,-2.5716,-2.5651,-2.578,-2.5836,-2.5859,-2.5566,-2.5564,-2.5563,-2.5562,0,0,-2.5102,-2.5176,-2.5203,-2.5238,-2.5301,-2.5365,-2.5458,-2.5536,-2.5582,-2.5638,-2.5717,-2.5828,-2.5796,-2.5841,-2.584,-2.5906,-2.6039,-2.5863,-2.5864,-2.5896,-2.6204,-2.6232,-2.6259,-2.6024,-2.6028,-2.6032,-2.62,0,-2.5262,-2.5424,-2.5425,-2.5575,-2.5652,-2.5624,-2.5705,-2.5753,-2.5772,-2.5841,-2.5862,-2.5942,-2.5892,-2.5919,-2.5983,-2.6009,-2.6101,-2.5997,-2.6101,-2.6105,-2.609,-2.6288,-2.6318,-2.6474,-2.6222,-2.6225,-2.6228,0,-2.547,-2.5532,-2.5689,-2.5741,-2.5773,-2.5846,-2.5918,-2.5984,-2.6038,-2.6047,-2.6097,-2.6086,-2.6182,-2.6112,-2.6246,-2.6175,-2.6217,-2.6236,-2.6242,-2.6255,-2.6176,-2.6308,-2.6524,-2.6549,-2.6262,-2.6259,-2.6257,0,-2.5602,-2.5724,-2.5835,-2.5865,-2.5928,-2.598,-2.6009,-2.6058,-2.6105,-2.6168,-2.6199,-2.6273,-2.6314,-2.6372,-2.6382,-2.6329,-2.6517,-2.6447,-2.6529,-2.6529,-2.6573,-2.6571,-2.6802,-2.6595,-2.6595,-2.6594,-2.6594,0,-2.5782,-2.588,-2.5895,-2.5963,-2.6073,-2.6073,-2.6181,-2.6206,-2.625,-2.6324,-2.6303,-2.6373,-2.638,-2.6453,-2.6461,-2.6572,-2.659,-2.6602,-2.6604,-2.6606,-2.6605,-2.6636,-2.6626,-2.6601,-2.6599,-2.6598,-2.6597,0,-2.595,-2.5963,-2.6082,-2.6131,-2.6145,-2.6224,-2.6266,-2.6332,-2.6348,-2.6442,-2.6464,-2.649,-2.6574,-2.6589,-2.6688,-2.6693,-2.6827,-2.6816,-2.6809,-2.6808,-2.6891,-2.6884,-2.7153,-2.7189,-2.6956,-2.6958,-2.696,0,-2.6065,-2.614,-2.6196,-2.6243,-2.6274,-2.635,-2.6398,-2.6401,-2.6451,-2.6518,-2.6577,-2.6658,-2.6724,-2.686,-2.6889,-2.6965,-2.6957,-2.7046,-2.6969,-2.6969,-2.6962,-2.6959,-2.6967,-2.7062,-2.7065,-2.7067,-2.7068,0,-2.6269,-2.6272,-2.634,-2.6412,-2.6468,-2.6525,-2.6578,-2.6618,-2.6628,-2.6686,-2.6771,-2.6822,-2.6923,-2.7005,-2.7081,-2.7111,-2.7093,-2.7092,-2.7115,-2.712,-2.7114,-2.7121,-2.6852,-2.7086,-2.7085,-2.7083,-2.7082,-2.7082,-2.6416,-2.6482,-2.6532,-2.6609,-2.6649,-2.6699,-2.6764,-2.6787,-2.6858,-2.6939,-2.6936,-2.703,-2.7083,-2.7182,-2.7218,-2.7293,-2.7264,-2.7298,-2.7307,-2.7316,-2.7325,-2.7099,-2.7306,-2.7305,-2.7305,-2.7305,-2.7304,0,-2.6622,-2.6652,-2.6722,-2.6797,-2.6859,-2.6832,-2.689,-2.6944,-2.7026,-2.7076,-2.714,-2.7239,-2.7318,-2.7352,-2.7431,-2.7484,-2.7478,-2.7505,-2.7503,-2.7511,-2.7345,-2.7318,-2.7509,-2.7509,-2.7509,-2.7509,-2.7509,-2.7509,-2.6736,-2.6846,-2.6854,-2.6984,-2.7014,-2.7105,-2.7141,-2.7187,-2.7227,-2.7338,-2.7403,-2.7424,-2.7468,-2.7549,-2.7622,-2.763,-2.7661,-2.7693,-2.7698,-2.7543,-2.7522,-2.7503,-2.7477,-2.7699,-2.7699,-2.7858,-2.7859,-2.786]},{"header":{"parameterUnit":"m.s-1","parameterCategory":1,"la1":30.2991,"la2":30.254,"lo1":-89.0895,"lo2":-89.0444,"dy":0.0017,"dx":0.0017,"nx":28,"ny":28,"refTime":"2024-09-26T03:00:00:Z","depth":0,"parameterNumber":3,"parameterNumberName":"V-component_of_WINDS"},"data":[0,0,0,0,0,0,0,0,0,0,0,0,0,0,0,0,0,0,0,0,0,0,0,0,0,0,0,0,0,0,0,0,0,0,0,0,0,0,0,0,0,0,0,0,0,0,0,0,0,0,0,0,0,0,0,0,0,0,-6.291,-6.2911,0,-6.2939,-6.2939,-6.2939,-6.2841,-6.2838,-6.2835,-6.2832,-6.2859,-6.2862,-6.2866,0,0,0,0,0,0,0,0,0,0,0,0,0,-6.2768,-6.2771,-6.291,-6.2911,-6.2911,-6.2939,-6.2939,-6.2939,-6.2841,-6.2838,-6.2834,-6.2831,-6.2858,-6.2862,-6.2866,0,0,0,0,0,0,0,0,0,0,0,0,0,-6.2816,-6.2772,-6.291,-6.2866,-6.2862,-6.2939,-6.2939,-6.2939,-6.2842,-6.2837,-6.2833,-6.2829,-6.2856,-6.2861,-6.2867,-6.2987,0,0,-6.2882,-6.2885,0,0,0,0,0,0,0,0,-6.2814,-6.2822,-6.2872,-6.2869,-6.2865,-6.2882,-6.2898,-6.2955,-6.2843,-6.2849,-6.2832,-6.2827,-6.287,-6.2874,-6.2889,-6.2988,-6.299,-6.2883,-6.2886,-6.2888,-6.289,0,0,0,0,0,0,0,-6.2811,-6.282,-6.2921,-6.2873,-6.2868,-6.2843,-6.2845,-6.2909,-6.2884,-6.2849,-6.2841,-6.2846,-6.2867,-6.2884,-6.2888,-6.299,-6.2883,-6.2887,-6.2891,-6.2893,-6.3188,-6.3193,0,0,0,0,0,0,-6.2813,-6.2818,-6.2921,-6.2922,-6.2828,-6.2849,-6.2851,-6.2881,-6.2883,-6.2879,-6.285,-6.2842,-6.2877,-6.2883,-6.2889,-6.3029,-6.2888,-6.2893,-6.2896,-6.3183,-6.3189,-6.3194,0,0,0,0,0,0,-6.2811,-6.2824,-6.2919,-6.2868,-6.2878,-6.2856,-6.289,-6.2884,-6.29,-6.2884,-6.2879,-6.2872,-6.2874,-6.2882,-6.2963,-6.3029,-6.2895,-6.29,-6.3178,-6.3185,-6.3192,-6.3312,0,0,0,0,0,0,-6.2807,-6.2823,-6.287,-6.287,-6.2882,-6.2995,-6.2894,-6.2887,-6.291,-6.2899,-6.2903,-6.29,-6.2871,-6.2956,-6.2968,-6.3034,-6.2904,-6.3172,-6.3181,-6.3189,-6.3302,-6.3322,-6.3339,0,0,0,0,0,-6.2802,-6.2903,-6.2873,-6.2886,-6.294,-6.2999,-6.3005,-6.297,-6.2915,-6.2961,-6.2951,-6.29,-6.302,-6.2965,-6.2978,-6.3046,-6.3167,-6.3178,-6.3189,-6.3293,-6.3318,-6.3339,0,0,0,0,0,0,-6.291,-6.2902,-6.2869,-6.2972,-6.2987,-6.2982,-6.3039,-6.2998,-6.3028,-6.3017,-6.2971,-6.2973,-6.3062,-6.3062,-6.3002,-6.3162,-6.3084,-6.3098,-6.3159,-6.3182,-6.3201,-6.3199,-6.2909,0,0,0,0,0,-6.2946,-6.2996,-6.2985,-6.3077,-6.3086,-6.3062,-6.3086,-6.3058,-6.3071,-6.3077,-6.3072,-6.3086,-6.3127,-6.3154,-6.3191,-6.3301,-6.33,-6.3354,-6.3373,-6.3388,-6.3401,-6.3457,-6.3481,-6.3229,-6.3229,-6.3229,0,0,-6.3021,-6.3022,-6.3056,-6.3099,-6.3107,-6.3158,-6.3068,-6.3126,-6.3163,-6.3085,-6.3162,-6.3159,-6.3171,-6.3268,-6.331,-6.327,-6.347,-6.3402,-6.3414,-6.3418,-6.347,-6.3494,-6.3515,-6.3236,-6.3235,-6.3234,0,0,-6.3183,-6.319,-6.3266,-6.3276,-6.3289,-6.3272,-6.3291,-6.3292,-6.3287,-6.3363,-6.3305,-6.3348,-6.3419,-6.343,-6.3445,-6.361,-6.3563,-6.3623,-6.3721,-6.3776,-6.3796,-6.3813,-6.3871,-6.3892,-6.3635,-6.3635,-6.3636,0,-6.3273,-6.3349,-6.3311,-6.3373,-6.3392,-6.3325,-6.3401,-6.3412,-6.3437,-6.3451,-6.3407,-6.3494,-6.3498,-6.3595,-6.3635,-6.3649,-6.3668,-6.3622,-6.3797,-6.3813,-6.3829,-6.3883,-6.3905,-6.3642,-6.3642,-6.3641,-6.364,0,-6.3459,-6.3513,-6.3573,-6.3598,-6.3625,-6.3694,-6.3664,-6.3696,-6.3665,-6.3652,-6.3729,-6.3731,-6.3766,-6.3787,-6.3758,-6.388,-6.3854,-6.3804,-6.3725,-6.3861,-6.3911,-6.3931,-6.3653,-6.365,-6.3648,-6.3646,0,0,-6.3691,-6.3693,-6.3716,-6.3726,-6.3735,-6.3775,-6.384,-6.3875,-6.3902,-6.392,-6.3973,-6.4034,-6.3987,-6.4004,-6.3975,-6.4024,-6.4153,-6.3968,-6.3967,-6.4001,-6.4285,-6.4323,-6.4348,-6.4122,-6.4126,-6.4129,-6.4284,0,-6.3849,-6.3961,-6.3927,-6.404,-6.4087,-6.4023,-6.4079,-6.409,-6.4079,-6.4117,-6.4105,-6.4148,-6.4084,-6.4093,-6.4139,-6.4128,-6.4209,-6.4116,-6.417,-6.4172,-6.4168,-6.4374,-6.4414,-6.456,-6.4303,-6.4307,-6.4309,0,-6.4049,-6.4075,-6.4193,-6.4192,-6.4211,-6.4262,-6.429,-6.4328,-6.4338,-6.4327,-6.4346,-6.4306,-6.4368,-6.4289,-6.4374,-6.4311,-6.4331,-6.4328,-6.4333,-6.4336,-6.4249,-6.4382,-6.4606,-6.4628,-6.434,-6.4337,-6.4335,0,-6.4204,-6.427,-6.4347,-6.4358,-6.436,-6.4397,-6.44,-6.4406,-6.4428,-6.4453,-6.4466,-6.4498,-6.4515,-6.454,-6.4509,-6.4454,-6.4598,-6.4516,-6.4589,-6.459,-6.4622,-6.462,-6.4851,-6.4636,-6.4636,-6.4635,-6.4635,0,-6.4384,-6.4458,-6.4417,-6.4465,-6.4545,-6.4505,-6.4586,-6.458,-6.4586,-6.4631,-6.4577,-6.462,-6.4578,-6.4617,-6.4593,-6.4666,-6.4674,-6.4666,-6.4658,-6.467,-6.4671,-6.4682,-6.4671,-6.4641,-6.464,-6.4639,-6.4638,0,-6.4572,-6.4548,-6.4628,-6.4623,-6.4623,-6.4682,-6.4677,-6.4721,-6.4705,-6.4763,-6.4774,-6.475,-6.4793,-6.4765,-6.4808,-6.4792,-6.4887,-6.4866,-6.4884,-6.4878,-6.4952,-6.4945,-6.5198,-6.5228,-6.4994,-6.4997,-6.4998,0,-6.4688,-6.4743,-6.4743,-6.477,-6.4776,-6.4819,-6.4841,-6.4803,-6.4829,-6.4844,-6.4885,-6.4923,-6.4952,-6.5023,-6.5009,-6.5042,-6.502,-6.5107,-6.5025,-6.5035,-6.502,-6.5017,-6.5022,-6.5123,-6.5126,-6.5128,-6.513,0,-6.4896,-6.4881,-6.4916,-6.4946,-6.4974,-6.4996,-6.5014,-6.5038,-6.5,-6.5031,-6.5074,-6.5096,-6.514,-6.5178,-6.5204,-6.5205,-6.5162,-6.5156,-6.5174,-6.5186,-6.5194,-6.519,-6.4928,-6.515,-6.5148,-6.5147,-6.5146,-6.5145,-6.5051,-6.5096,-6.5103,-6.5143,-6.5152,-6.5169,-6.5209,-6.5199,-6.5234,-6.5267,-6.5242,-6.5293,-6.53,-6.5332,-6.5338,-6.5377,-6.5342,-6.5369,-6.5375,-6.5382,-6.5392,-6.5189,-6.5382,-6.5381,-6.5381,-6.538,-6.538,0,-6.5255,-6.5256,-6.5293,-6.5319,-6.535,-6.5306,-6.5322,-6.5351,-6.5397,-6.5407,-6.5436,-6.5485,-6.5522,-6.551,-6.5542,-6.5575,-6.5556,-6.5585,-6.5582,-6.5583,-6.5422,-6.5403,-6.56,-6.56,-6.56,-6.56,-6.56,-6.56,-6.5365,-6.5439,-6.5425,-6.5502,-6.5502,-6.5551,-6.5565,-6.558,-6.5588,-6.5645,-6.5675,-6.5667,-6.5669,-6.57,-6.5731,-6.5727,-6.5741,-6.5777,-6.5766,-6.5616,-6.5594,-6.5573,-6.5555,-6.5781,-6.5781,-6.5922,-6.5924,-6.5925]}]]